Location: ??????
(30.5519°N, 47.7720°E)
Time: 18:04:21
(UTC+00:00)

YAOGAN 1 - Pass Details

Date: 24 January 2021
Orbit: 618 x 620 km, 97.9° (Epoch: 01 March)

Event Time Altitude Azimuth Distance (km) Brightness Sun altitude
Rises 14:43:45 0° 131° (SE) 2,884 5.7 -6.0°
Reaches altitude 10° 14:46:31 10° 112° (ESE) 1,982 4.7 -6.6°
Maximum altitude 14:49:23 18° 70° (ENE) 1,541 4.0 -7.1°
Drops below altitude 10° 14:52:16 10° 28° (NNE) 1,989 4.7 -7.7°
Sets 14:55:03 0° 9° (N) 2,899 5.7 -8.3°
